Regional Weather Roundup
Issued by NWS Sioux Falls, SD

Home | Current Version | Previous Version | Text Only | Print | Product List | Glossary On
Versions: 1 2 3 4 5 6 7 8 9 10 11 12 13 14 15 16 17 18 19 20 21 22 23 24 25 26 27 28 29 30 31 32 33 34 35 36 37 38 39 40 41 42 43 44 45 46 47 48 49 50
000
ASUS43 KFSD 261410
RWRFSD

WEATHER ROUNDUP FOR SE SOUTH DAKOTA/SW MINNESOTA/NW IOWA
NATIONAL WEATHER SERVICE SIOUX FALLS SD
900 AM CDT TUE JUL 26 2016

NOTE: "FAIR" INDICATES FEW OR NO CLOUDS BELOW 12,000 FEET WITH NO
SIGNIFICANT WEATHER AND OR OBSTRUCTIONS TO VISIBILITY.


SDZ038>040-050-052>070-261500-
SOUTHEAST SOUTH DAKOTA

CITY           SKY/WX    TMP DP  RH WIND       PRES   REMARKS
BROOKINGS      SUNNY     73  65  75 SW9       30.06R
CHAMBERLAIN    SUNNY     79  67  67 S10       30.02R
HURON          SUNNY     73  63  70 S9        30.02R
MADISON        FAIR      73  68  83 SW12      30.07S
MITCHELL       SUNNY     74  64  71 S9        30.03S
SIOUX FALLS    MOSUNNY   76  65  68 SW13      30.06F
WINNER         FAIR      79  63  57 S21G30    30.02S
YANKTON        SUNNY     72  64  78 E3        30.04F
$$

MNZ071-072-080-081-089-090-097-098-261500-
SOUTHWEST MINNESOTA

CITY           SKY/WX    TMP DP  RH WIND       PRES   REMARKS
FAIRMONT       SUNNY     75  64  69 SW7       30.07S
JACKSON        SUNNY     75  63  64 SW7       30.09S
LUVERNE        SUNNY     70  64  83 CALM      30.08S
MARSHALL       SUNNY     78  65  63 SW16G23   30.01S
MONTEVIDEO     SUNNY     79  66  65 NE5       30.06R
REDWOOD FALLS  SUNNY     76  66  71 SW10      30.03S
TRACY          SUNNY     77  67  72 SW14      30.04S
WINDOM         SUNNY     75  66  73 SW10      30.07S
WORTHINGTON    SUNNY     75  66  73 SW9       30.08F
$$

IAZ001>003-012>014-020>022-031-032-NEZ013-014-SDZ071-261500-
NORTHWEST IOWA

CITY           SKY/WX    TMP DP  RH WIND       PRES   REMARKS
CHEROKEE       SUNNY     73  68  84 S5        30.09S
DENISON        SUNNY     73  68  83 CALM      30.08S
ESTHERVILLE    SUNNY     74  67  78 SW6       30.08F
LE MARS        SUNNY     75  68  78 SW7       30.08S
SHELDON        SUNNY     75  68  78 SW7       30.07S
SIOUX CITY     SUNNY     74  67  78 SE5       30.07S
SPENCER        SUNNY     74  66  76 SW6       30.08F
STORM LAKE     SUNNY     75  66  73 S6        30.10S
$$

ABBREVIATIONS USED IN REMARKS
   TC - TEMPERATURE IN CELSIUS
  WCI - WIND CHILL INDEX
   HX - HEAT INDEX
  VSB - VISIBILITY





USA.gov is the U.S. government's official web portal to all federal, state and local government web resources and services.